Tracking 25656 objects as of 21-May-2022
HD Live streaming from Space Station
objects crossing your sky now

ONEWEB-0261

Track ONEWEB-0261 now!
10-day predictions
ONEWEB-0261 is classified as:


NORAD ID: 48979
Int'l Code: 2021-061N
Perigee: 1,203.3 km
Apogee: 1,206.4 km
Inclination: 87.9 °
Period: 109.4 minutes
Semi major axis: 7575 km
RCS: Unknown
Launch date: July 1, 2021
Source: United Kingdom (UK)
Launch site: VOSTOCHNY COSMODROME (VOSTO)
aabbcc
Your satellite tracking list
Your tracking list is empty




NASA's NSSDC Master Catalog

Two Line Element Set (TLE):
1 48979U 21060N   22140.58334491 -.00003393  00000-0 -89119-2 0  9992
2 48979  87.9122 165.1188 0002050  77.3848 290.9966 13.16604322  1305
Source of the keplerian elements: AFSPC